Glendive, MT

9:37 AM MST on December 10, 2019 (GMT -0700)
Dawson Community

Weather History for KGDV - October, 2019

Change the Weather History Date:

Tuesday, October 15, 2019

  Actual Average Record
Temperature  
Mean Temperature 40 °F -  
Max Temperature 48 °F 55 °F 77 °F (2010)
Min Temperature 32 °F 32 °F 18 °F (2018)
Degree Days  
Heating Degree Days 25    
Moisture  
Dew Point 29 °F    
Average Humidity 71    
Maximum Humidity 89    
Minimum Humidity 46    
Precipitation  
Precipitation 0.00 in - - ()
Sea Level Pressure  
Sea Level Pressure 30.23 in    
Wind  
Wind Speed 13 mph (NW)    
Max Wind Speed 18 mph    
Max Gust Speed 28 mph    
Visibility 10 miles    
Events      
Averages and records for this station are not official NWS values.
T = Trace of Precipitation, MM = Missing Value Source: NWS Daily Summary

Daily Weather History Graph

Daily Weather History Graph

Search for Another Location

Airport or City:

Astronomy

Oct. 15, 2019 Rise Set
Actual Time 7:17 AM MDT 6:12 PM MDT
Civil Twilight 6:46 AM MDT 6:42 PM MDT
Nautical Twilight 6:11 AM MDT 7:18 PM MDT
Astronomical Twilight 5:35 AM MDT 7:53 PM MDT
Moon 7:28 PM MDT (10/15) 8:53 AM MDT (10/15)
Length of Visible Light 11h 56m
Length of Day
10h 54m
Full, 97% of the Moon is Illuminated
Oct 15
Full
Oct 21
Last Quarter
Oct 27
New
Nov 4
First Quarter
Nov 12
Full

Hourly Weather History & Observations

Time (MDT) Temp. Windchill Dew Point Humidity Pressure Visibility Wind Dir Wind Speed Gust Speed Precip Events Conditions
12:56 AM 39.0 °F 29.6 °F 32.0 °F 76% 30.11 in 10.0 mi WNW 18.4 mph 25.3 mph N/A   Overcast
1:08 AM 39.2 °F 29.8 °F 32.0 °F 75% 30.08 in 10.0 mi WNW 18.4 mph 25.3 mph N/A   Overcast
1:56 AM 39.0 °F 30.6 °F 32.0 °F 76% 30.14 in 10.0 mi NW 15.0 mph 23.0 mph N/A   Overcast
2:28 AM 37.4 °F 28.5 °F 32.0 °F 81% 30.11 in 10.0 mi WNW 15.0 mph 21.9 mph N/A   Overcast
2:56 AM 37.9 °F 28.5 °F 30.9 °F 76% 30.14 in 10.0 mi NW 17.3 mph 24.2 mph N/A   Mostly Cloudy
3:56 AM 37.9 °F 29.2 °F 32.0 °F 79% 30.16 in 10.0 mi WNW 15.0 mph - N/A   Overcast
4:56 AM 37.9 °F 28.2 °F 32.0 °F 79% 30.19 in 10.0 mi NW 18.4 mph 27.6 mph 0.00 in   Overcast
5:56 AM 35.1 °F 25.5 °F 30.9 °F 85% 30.23 in 10.0 mi NW 15.0 mph 24.2 mph N/A   Mostly Cloudy
6:56 AM 34.0 °F 24.2 °F 30.0 °F 85% 30.25 in 10.0 mi NW 15.0 mph - N/A   Partly Cloudy
7:56 AM 33.1 °F 22.2 °F 30.0 °F 89% 30.27 in 10.0 mi NW 17.3 mph 25.3 mph N/A   Scattered Clouds
8:56 AM 35.1 °F 24.8 °F 30.0 °F 82% 30.30 in 10.0 mi NW 17.3 mph 24.2 mph N/A   Clear
9:56 AM 37.9 °F 28.9 °F 30.0 °F 73% 30.32 in 10.0 mi NNW 16.1 mph 23.0 mph N/A   Mostly Cloudy
10:56 AM 39.0 °F 29.9 °F 30.9 °F 73% 30.32 in 10.0 mi NNW 17.3 mph - N/A   Overcast
11:56 AM 42.1 °F 37.1 °F 30.0 °F 62% 30.31 in 10.0 mi NNW 8.1 mph - N/A   Partly Cloudy
12:56 PM 45.0 °F 40.6 °F 28.9 °F 53% 30.30 in 10.0 mi WNW 8.1 mph - N/A   Partly Cloudy
1:56 PM 44.1 °F 39.0 °F 27.0 °F 51% 30.28 in 10.0 mi North 9.2 mph - N/A   Clear
2:56 PM 46.9 °F - 28.0 °F 48% 30.27 in 10.0 mi West 8.1 mph - N/A   Partly Cloudy
3:56 PM 48.0 °F - 28.0 °F 46% 30.27 in 10.0 mi Variable 5.8 mph - N/A   Partly Cloudy
4:56 PM 46.9 °F - 27.0 °F 46% 30.25 in 10.0 mi West 5.8 mph - N/A   Clear
5:56 PM 44.1 °F - 27.0 °F 51% 30.26 in 10.0 mi Calm Calm - N/A   Clear
6:56 PM 39.0 °F - 27.0 °F 62% 30.25 in 10.0 mi Calm Calm - N/A   Clear
7:56 PM 34.0 °F 31.0 °F 25.0 °F 70% 30.26 in 10.0 mi South 3.5 mph - N/A   Clear
8:56 PM 36.0 °F 33.3 °F 27.0 °F 70% 30.25 in 10.0 mi East 3.5 mph - N/A   Clear
9:56 PM 34.0 °F 31.0 °F 28.0 °F 79% 30.24 in 10.0 mi East 3.5 mph - N/A   Clear
10:56 PM 32.0 °F 28.7 °F 28.0 °F 85% 30.21 in 10.0 mi ESE 3.5 mph - N/A   Clear
11:56 PM 33.1 °F 30.0 °F 28.9 °F 85% 30.18 in 10.0 mi SSE 3.5 mph - N/A   Clear